StationID,Date,MaxTemp,MinTemp,Precipitation,Snowfall,SnowDepth
"CA1BC000010","2015-06-20",,,0.00,0.00,
"CA1BC000010","2015-06-21",,,0.00,,
"CA1BC000010","2015-06-22",,,0.00,,
"CA1BC000010","2015-06-23",,,20.00,,
"CA1BC000010","2015-06-24",,,0.00,,
"CA1BC000010","2015-06-25",,,0.00,,
"CA1BC000010","2015-06-26",,,0.00,,
"CA1BC000010","2015-06-27",,,0.00,,
"CA1BC000010","2015-06-28",,,0.00,,
"CA1BC000010","2015-06-29",,,0.00,,
"CA1BC000010","2015-06-30",,,130.00,,
"CA1BC000010","2015-07-01",,,0.00,,
"CA1BC000010","2015-07-02",,,0.00,,
"CA1BC000010","2015-07-03",,,0.00,,
"CA1BC000010","2015-07-04",,,0.00,,
"CA1BC000010","2015-07-05",,,0.00,,
"CA1BC000010","2015-07-06",,,0.00,,
"CA1BC000010","2015-07-07",,,0.00,,
"CA1BC000010","2015-07-08",,,0.00,,
"CA1BC000010","2015-07-09",,,0.00,,
"CA1BC000010","2015-07-10",,,0.00,,
"CA1BC000010","2015-07-11",,,0.00,,
"CA1BC000010","2015-07-12",,,0.00,,
"CA1BC000010","2015-07-13",,,0.00,,
"CA1BC000010","2015-07-14",,,117.00,0.00,0.00
"CA1BC000010","2015-07-15",,,13.00,,
"CA1BC000010","2015-07-17",,,0.00,,
"CA1BC000010","2015-07-18",,,0.00,,
"CA1BC000010","2015-07-20",,,3.00,0.00,0.00
"CA1BC000010","2015-07-21",,,23.00,,
"CA1BC000010","2015-07-22",,,0.00,0.00,
"CA1BC000010","2015-07-23",,,0.00,0.00,
"CA1BC000010","2015-07-31",,,,,0.00
"CA1BC000010","2015-08-01",,,0.00,0.00,0.00
"CA1BC000010","2015-08-02",,,0.00,0.00,0.00
"CA1BC000010","2015-08-03",,,0.00,0.00,0.00
"CA1BC000010","2015-08-04",,,0.00,0.00,0.00
"CA1BC000010","2015-08-05",,,0.00,0.00,0.00
"CA1BC000010","2015-08-06",,,15.00,0.00,0.00
"CA1BC000010","2015-08-07",,,0.00,0.00,0.00
"CA1BC000010","2015-08-09",,,0.00,0.00,0.00
"CA1BC000010","2015-08-10",,,0.00,0.00,0.00
"CA1BC000010","2015-08-11",,,0.00,0.00,0.00
"CA1BC000010","2015-08-12",,,0.00,0.00,0.00
"CA1BC000010","2015-08-13",,,0.00,0.00,0.00
"CA1BC000010","2015-08-14",,,0.00,0.00,0.00
"CA1BC000010","2015-08-15",,,25.00,0.00,0.00
"CA1BC000010","2015-08-16",,,0.00,0.00,0.00
"CA1BC000010","2015-08-17",,,0.00,0.00,0.00
"CA1BC000010","2015-08-18",,,0.00,0.00,0.00
"CA1BC000010","2015-08-19",,,0.00,0.00,0.00
"CA1BC000010","2015-08-20",,,0.00,0.00,0.00
"CA1BC000010","2015-08-21",,,0.00,0.00,0.00
"CA1BC000010","2015-08-22",,,13.00,0.00,0.00
"CA1BC000010","2015-08-23",,,0.00,0.00,0.00
"CA1BC000010","2015-08-24",,,0.00,0.00,0.00
"CA1BC000010","2015-08-25",,,0.00,0.00,0.00
"CA1BC000010","2015-08-26",,,0.00,0.00,0.00
"CA1BC000010","2015-08-27",,,0.00,0.00,0.00
"CA1BC000010","2015-08-28",,,0.00,0.00,0.00
"CA1BC000010","2015-08-29",,,0.00,0.00,0.00
"CA1BC000010","2015-08-30",,,10.00,0.00,0.00
"CA1BC000010","2015-08-31",,,107.00,0.00,0.00
"CA1BC000010","2015-09-01",,,99.00,0.00,0.00
"CA1BC000010","2015-09-02",,,13.00,0.00,0.00
"CA1BC000010","2015-09-03",,,20.00,0.00,0.00
"CA1BC000010","2015-09-04",,,15.00,0.00,0.00
"CA1BC000010","2015-09-05",,,0.00,0.00,0.00
"CA1BC000010","2015-09-06",,,51.00,0.00,0.00
"CA1BC000010","2015-09-07",,,8.00,0.00,0.00
"CA1BC000010","2015-09-08",,,15.00,0.00,0.00
"CA1BC000010","2015-09-09",,,18.00,0.00,0.00
"CA1BC000010","2015-09-10",,,0.00,0.00,0.00
"CA1BC000010","2015-09-11",,,0.00,0.00,0.00
"CA1BC000010","2015-09-12",,,0.00,0.00,0.00
"CA1BC000010","2015-09-13",,,0.00,0.00,0.00
"CA1BC000010","2015-09-14",,,0.00,0.00,0.00
"CA1BC000010","2015-09-15",,,41.00,0.00,0.00
"CA1BC000010","2015-09-16",,,56.00,0.00,0.00
"CA1BC000010","2015-09-17",,,0.00,0.00,0.00
"CA1BC000010","2015-09-18",,,0.00,0.00,0.00
"CA1BC000010","2015-09-19",,,0.00,0.00,0.00
"CA1BC000010","2015-09-20",,,3.00,0.00,0.00
"CA1BC000010","2015-09-21",,,185.00,0.00,0.00
"CA1BC000010","2015-09-22",,,0.00,0.00,0.00
"CA1BC000010","2015-09-23",,,0.00,0.00,0.00
"CA1BC000010","2015-09-24",,,0.00,0.00,0.00
"CA1BC000010","2015-09-25",,,0.00,0.00,0.00
"CA1BC000010","2015-09-26",,,5.00,0.00,0.00
"CA1BC000010","2015-09-27",,,0.00,0.00,0.00
"CA1BC000010","2015-09-28",,,0.00,0.00,0.00
"CA1BC000010","2015-09-29",,,0.00,0.00,0.00
"CA1BC000010","2015-09-30",,,0.00,0.00,0.00
"CA1BC000010","2015-10-01",,,0.00,0.00,0.00
"CA1BC000010","2015-10-02",,,0.00,0.00,0.00
"CA1BC000010","2015-10-03",,,13.00,0.00,0.00
"CA1BC000010","2015-10-04",,,0.00,0.00,0.00
"CA1BC000010","2015-10-05",,,0.00,0.00,0.00
"CA1BC000010","2015-10-06",,,0.00,0.00,0.00
"CA1BC000010","2015-10-07",,,3.00,0.00,0.00
"CA1BC000010","2015-10-08",,,0.00,0.00,0.00
"CA1BC000010","2015-10-09",,,0.00,0.00,0.00
"CA1BC000010","2015-10-10",,,0.00,0.00,0.00
"CA1BC000010","2015-10-11",,,28.00,0.00,0.00
"CA1BC000010","2015-10-12",,,0.00,0.00,0.00
"CA1BC000010","2015-10-13",,,0.00,0.00,0.00
"CA1BC000010","2015-10-14",,,0.00,0.00,0.00
"CA1BC000010","2015-10-15",,,0.00,0.00,0.00
"CA1BC000010","2015-10-16",,,0.00,0.00,0.00
"CA1BC000010","2015-10-17",,,0.00,0.00,0.00
"CA1BC000010","2015-10-18",,,0.00,0.00,0.00
"CA1BC000010","2015-10-19",,,0.00,0.00,0.00
"CA1BC000010","2015-10-20",,,0.00,0.00,0.00
"CA1BC000010","2015-10-21",,,0.00,0.00,0.00
"CA1BC000010","2015-10-22",,,0.00,0.00,0.00
"CA1BC000010","2015-10-23",,,0.00,0.00,0.00
"CA1BC000010","2015-10-24",,,0.00,0.00,0.00
"CA1BC000010","2015-10-25",,,0.00,0.00,0.00
"CA1BC000010","2015-10-26",,,10.00,0.00,0.00
"CA1BC000010","2015-10-27",,,43.00,0.00,0.00
"CA1BC000010","2015-10-28",,,0.00,0.00,0.00
"CA1BC000010","2015-10-29",,,20.00,0.00,0.00
"CA1BC000010","2015-10-30",,,38.00,0.00,0.00
"CA1BC000010","2015-10-31",,,94.00,0.00,0.00
"CA1BC000010","2015-11-01",,,94.00,0.00,0.00
"CA1BC000010","2015-11-02",,,112.00,0.00,0.00
"CA1BC000010","2015-11-03",,,8.00,0.00,0.00
"CA1BC000010","2015-11-04",,,0.00,0.00,0.00
"CA1BC000010","2015-11-05",,,0.00,0.00,0.00
"CA1BC000010","2015-11-06",,,3.00,0.00,0.00
"CA1BC000010","2015-11-07",,,5.00,0.00,0.00
"CA1BC000010","2015-11-08",,,74.00,0.00,0.00
"CA1BC000010","2015-11-09",,,18.00,0.00,0.00
"CA1BC000010","2015-11-10",,,0.00,0.00,0.00
"CA1BC000010","2015-11-11",,,15.00,0.00,0.00
"CA1BC000010","2015-11-12",,,13.00,0.00,0.00
"CA1BC000010","2015-11-13",,,74.00,0.00,5.00
"CA1BC000010","2015-11-14",,,193.00,0.00,0.00
"CA1BC000010","2015-11-15",,,79.00,0.00,0.00
"CA1BC000010","2015-11-16",,,33.00,0.00,0.00
"CA1BC000010","2015-11-17",,,109.00,56.00,56.00
"CA1BC000010","2015-11-18",,,38.00,0.00,0.00
"CA1BC000010","2015-11-19",,,0.00,0.00,0.00
"CA1BC000010","2015-11-20",,,0.00,0.00,0.00
"CA1BC000010","2015-11-21",,,0.00,0.00,0.00
"CA1BC000010","2015-11-22",,,0.00,0.00,0.00
"CA1BC000010","2015-11-23",,,3.00,5.00,0.00
"CA1BC000010","2015-11-24",,,107.00,102.00,102.00
"CA1BC000010","2015-11-25",,,18.00,10.00,89.00
"CA1BC000010","2015-11-26",,,0.00,0.00,84.00
"CA1BC000010","2015-11-27",,,0.00,0.00,79.00
"CA1BC000010","2015-11-28",,,0.00,0.00,79.00
"CA1BC000010","2015-11-29",,,0.00,0.00,79.00
"CA1BC000010","2015-11-30",,,0.00,0.00,76.00
"CA1BC000010","2015-12-01",,,0.00,0.00,76.00
"CA1BC000010","2015-12-02",,,15.00,30.00,99.00
"CA1BC000010","2015-12-03",,,30.00,10.00,99.00
"CA1BC000010","2015-12-04",,,241.00,0.00,66.00
"CA1BC000010","2015-12-05",,,5.00,0.00,5.00
"CA1BC000010","2015-12-06",,,71.00,0.00,0.00
"CA1BC000010","2015-12-07",,,66.00,0.00,0.00
"CA1BC000010","2015-12-08",,,38.00,0.00,0.00
"CA1BC000010","2015-12-09",,,201.00,0.00,0.00
"CA1BC000010","2015-12-10",,,3.00,0.00,0.00
"CA1BC000010","2015-12-11",,,0.00,0.00,0.00
"CA1BC000010","2015-12-12",,,5.00,0.00,0.00
"CA1BC000010","2015-12-13",,,76.00,0.00,0.00
"CA1BC000010","2015-12-14",,,3.00,0.00,0.00
"CA1BC000010","2015-12-15",,,0.00,0.00,0.00
"CA1BC000010","2015-12-16",,,13.00,41.00,41.00
"CA1BC000010","2015-12-17",,,0.00,0.00,30.00
"CA1BC000010","2015-12-18",,,41.00,51.00,79.00
"CA1BC000010","2015-12-19",,,18.00,20.00,89.00
"CA1BC000010","2015-12-20",,,0.00,0.00,76.00
"CA1BC000010","2015-12-21",,,64.00,160.00,211.00
"CA1BC000010","2015-12-22",,,5.00,5.00,170.00
"CA1BC000010","2015-12-23",,,5.00,5.00,150.00
"CA1BC000010","2015-12-24",,,10.00,20.00,155.00
"CA1BC000010","2015-12-25",,,10.00,15.00,145.00
"CA1BC000010","2015-12-26",,,0.00,0.00,124.00
"CA1BC000010","2015-12-27",,,10.00,25.00,145.00
"CA1BC000010","2015-12-28",,,18.00,38.00,155.00
"CA1BC000010","2015-12-29",,,5.00,5.00,137.00
"CA1BC000010","2015-12-30",,,0.00,0.00,135.00
"CA1BC000010","2015-12-31",,,0.00,0.00,124.00
"CA1BC000010","2016-01-01",,,0.00,0.00,130.00
"CA1BC000010","2016-01-02",,,0.00,0.00,130.00
"CA1BC000010","2016-01-03",,,0.00,0.00,130.00
"CA1BC000010","2016-01-04",,,38.00,51.00,173.00
"CA1BC000010","2016-01-05",,,15.00,23.00,193.00
"CA1BC000010","2016-01-06",,,10.00,15.00,185.00
"CA1BC000010","2016-01-07",,,28.00,41.00,206.00
"CA1BC000010","2016-01-08",,,10.00,10.00,175.00
"CA1BC000010","2016-01-09",,,0.00,0.00,135.00
"CA1BC000010","2016-01-10",,,0.00,0.00,130.00
"CA1BC000010","2016-01-11",,,0.00,0.00,124.00
"CA1BC000010","2016-01-12",,,13.00,20.00,145.00
"CA1BC000010","2016-01-13",,,56.00,76.00,226.00
"CA1BC000010","2016-01-14",,,84.00,30.00,218.00
"CA1BC000010","2016-01-15",,,0.00,0.00,185.00
"CA1BC000010","2016-01-16",,,51.00,84.00,244.00
"CA1BC000010","2016-01-17",,,3.00,5.00,239.00
"CA1BC000010","2016-01-18",,,41.00,10.00,221.00
"CA1BC000010","2016-01-19",,,8.00,5.00,191.00
"CA1BC000010","2016-01-20",,,69.00,5.00,155.00
"CA1BC000010","2016-01-21",,,13.00,0.00,135.00
"CA1BC000010","2016-01-22",,,84.00,0.00,124.00
"CA1BC000010","2016-01-23",,,33.00,0.00,109.00
"CA1BC000010","2016-01-24",,,61.00,0.00,104.00
"CA1BC000010","2016-01-25",,,0.00,0.00,94.00
"CA1BC000010","2016-01-26",,,0.00,0.00,89.00
"CA1BC000010","2016-01-27",,,3.00,0.00,71.00
"CA1BC000010","2016-01-28",,,89.00,0.00,20.00
"CA1BC000010","2016-01-29",,,30.00,0.00,0.00
"CA1BC000010","2016-01-30",,,20.00,0.00,0.00
"CA1BC000010","2016-01-31",,,3.00,5.00,5.00
"CA1BC000010","2016-02-01",,,0.00,0.00,0.00
"CA1BC000010","2016-02-02",,,0.00,0.00,0.00
"CA1BC000010","2016-02-03",,,0.00,0.00,0.00
"CA1BC000010","2016-02-04",,,33.00,51.00,51.00
"CA1BC000010","2016-02-05",,,5.00,0.00,10.00
"CA1BC000010","2016-02-06",,,3.00,0.00,0.00
"CA1BC000010","2016-02-07",,,0.00,0.00,0.00
"CA1BC000010","2016-02-08",,,0.00,0.00,0.00
"CA1BC000010","2016-02-09",,,0.00,0.00,0.00
"CA1BC000010","2016-02-10",,,0.00,0.00,0.00
"CA1BC000010","2016-02-11",,,0.00,0.00,0.00
"CA1BC000010","2016-02-12",,,66.00,0.00,0.00
"CA1BC000010","2016-02-13",,,23.00,0.00,0.00
"CA1BC000010","2016-02-14",,,30.00,0.00,0.00
"CA1BC000010","2016-02-15",,,64.00,0.00,0.00
"CA1BC000010","2016-02-16",,,38.00,0.00,0.00
"CA1BC000010","2016-02-17",,,0.00,0.00,0.00
"CA1BC000010","2016-02-18",,,104.00,0.00,0.00
"CA1BC000010","2016-02-19",,,69.00,0.00,0.00
"CA1BC000010","2016-02-20",,,43.00,0.00,0.00
"CA1BC000010","2016-02-21",,,0.00,0.00,0.00
"CA1BC000010","2016-02-22",,,0.00,0.00,0.00
"CA1BC000010","2016-02-23",,,0.00,0.00,0.00
"CA1BC000010","2016-02-24",,,0.00,0.00,0.00
"CA1BC000010","2016-02-25",,,0.00,0.00,0.00
"CA1BC000010","2016-02-26",,,0.00,0.00,0.00
"CA1BC000010","2016-02-27",,,18.00,0.00,0.00
"CA1BC000010","2016-02-28",,,0.00,0.00,0.00
"CA1BC000010","2016-02-29",,,46.00,0.00,0.00
"CA1BC000010","2016-03-01",,,0.00,0.00,0.00
"CA1BC000010","2016-03-02",,,79.00,0.00,0.00
"CA1BC000010","2016-03-03",,,10.00,0.00,0.00
"CA1BC000010","2016-03-04",,,5.00,0.00,0.00
"CA1BC000010","2016-03-05",,,15.00,0.00,0.00
"CA1BC000010","2016-03-06",,,117.00,0.00,0.00
"CA1BC000010","2016-03-07",,,64.00,0.00,0.00
"CA1BC000010","2016-03-08",,,48.00,0.00,0.00
"CA1BC000010","2016-03-09",,,3.00,0.00,0.00
"CA1BC000010","2016-03-10",,,170.00,0.00,0.00
"CA1BC000010","2016-04-13",,,,,0.00
"CA1BC000010","2016-04-14",,,3.00,0.00,0.00
"CA1BC000010","2016-04-15",,,76.00,0.00,0.00
"CA1BC000010","2016-04-16",,,0.00,0.00,0.00
"CA1BC000010","2016-04-17",,,0.00,0.00,0.00
"CA1BC000010","2016-04-18",,,0.00,0.00,0.00
"CA1BC000010","2016-04-19",,,0.00,0.00,0.00
"CA1BC000010","2016-04-20",,,0.00,0.00,0.00
"CA1BC000010","2016-04-21",,,0.00,0.00,0.00
"CA1BC000010","2016-04-22",,,0.00,0.00,0.00
"CA1BC000010","2016-04-23",,,43.00,0.00,0.00
"CA1BC000010","2016-04-24",,,56.00,0.00,0.00
"CA1BC000010","2016-04-25",,,10.00,0.00,0.00
"CA1BC000010","2016-04-26",,,0.00,0.00,0.00
"CA1BC000010","2016-04-27",,,0.00,0.00,0.00
"CA1BC000010","2016-04-28",,,0.00,0.00,0.00
"CA1BC000010","2016-04-29",,,0.00,0.00,0.00
"CA1BC000010","2016-04-30",,,97.00,0.00,0.00
"CA1BC000010","2016-05-01",,,0.00,0.00,0.00
"CA1BC000010","2016-05-02",,,0.00,0.00,0.00
"CA1BC000010","2016-05-03",,,0.00,0.00,0.00
"CA1BC000010","2016-05-04",,,0.00,0.00,0.00
"CA1BC000010","2016-05-05",,,30.00,0.00,0.00
"CA1BC000010","2016-05-06",,,10.00,0.00,0.00
"CA1BC000010","2016-05-07",,,0.00,0.00,0.00
"CA1BC000010","2016-05-08",,,0.00,0.00,0.00
"CA1BC000010","2016-05-09",,,20.00,0.00,0.00
"CA1BC000010","2016-05-10",,,0.00,0.00,0.00
"CA1BC000010","2016-05-11",,,0.00,0.00,0.00
"CA1BC000010","2016-05-12",,,10.00,0.00,0.00
"CA1BC000010","2016-05-13",,,0.00,0.00,0.00
"CA1BC000010","2016-05-14",,,0.00,0.00,0.00
"CA1BC000010","2016-05-15",,,0.00,0.00,0.00
"CA1BC000010","2016-05-16",,,0.00,0.00,0.00
"CA1BC000010","2016-05-17",,,0.00,0.00,0.00
"CA1BC000010","2016-05-18",,,0.00,0.00,0.00
"CA1BC000010","2016-05-19",,,132.00,0.00,0.00
"CA1BC000010","2016-05-20",,,28.00,0.00,0.00
"CA1BC000010","2016-05-21",,,13.00,0.00,0.00
"CA1BC000010","2016-05-22",,,132.00,0.00,0.00
"CA1BC000010","2016-05-23",,,36.00,0.00,0.00
"CA1BC000010","2016-05-24",,,15.00,0.00,0.00
"CA1BC000010","2016-05-25",,,0.00,0.00,0.00
"CA1BC000010","2016-05-26",,,0.00,0.00,0.00
"CA1BC000010","2016-05-27",,,147.00,0.00,0.00
"CA1BC000010","2016-05-28",,,53.00,0.00,0.00
"CA1BC000010","2016-05-29",,,28.00,0.00,0.00
"CA1BC000010","2016-05-30",,,38.00,0.00,0.00
"CA1BC000010","2016-05-31",,,0.00,0.00,0.00
"CA1BC000010","2016-06-01",,,0.00,0.00,0.00
"CA1BC000010","2016-06-02",,,0.00,0.00,0.00
"CA1BC000010","2016-06-03",,,23.00,0.00,0.00
"CA1BC000010","2016-06-04",,,0.00,0.00,0.00
"CA1BC000010","2016-06-05",,,0.00,0.00,0.00
"CA1BC000010","2016-06-06",,,0.00,0.00,0.00
"CA1BC000010","2016-06-07",,,0.00,0.00,0.00
"CA1BC000010","2016-06-08",,,0.00,0.00,0.00
"CA1BC000010","2016-06-09",,,84.00,0.00,0.00
"CA1BC000010","2016-06-10",,,107.00,0.00,0.00
"CA1BC000010","2016-06-12",,,,,0.00
"CA1BC000010","2016-06-13",,,0.00,0.00,0.00
"CA1BC000010","2016-06-14",,,10.00,0.00,0.00
"CA1BC000010","2016-06-15",,,38.00,0.00,0.00
"CA1BC000010","2016-06-16",,,0.00,0.00,0.00
"CA1BC000010","2016-06-17",,,10.00,0.00,0.00
"CA1BC000010","2016-06-18",,,0.00,0.00,0.00
"CA1BC000010","2016-06-19",,,104.00,0.00,0.00
"CA1BC000010","2016-06-20",,,0.00,0.00,0.00
"CA1BC000010","2016-06-21",,,0.00,0.00,0.00
"CA1BC000010","2016-06-22",,,0.00,0.00,0.00
"CA1BC000010","2016-06-23",,,0.00,0.00,0.00
"CA1BC000010","2016-06-24",,,142.00,0.00,0.00
"CA1BC000010","2016-06-25",,,132.00,0.00,0.00
"CA1BC000010","2016-06-26",,,25.00,0.00,0.00
"CA1BC000010","2016-06-27",,,0.00,0.00,0.00
"CA1BC000010","2016-06-28",,,0.00,0.00,0.00
"CA1BC000010","2016-06-29",,,0.00,0.00,0.00
"CA1BC000010","2016-06-30",,,0.00,0.00,0.00
"CA1BC000010","2016-07-01",,,0.00,0.00,0.00
"CA1BC000010","2016-07-02",,,0.00,0.00,0.00
"CA1BC000010","2016-07-03",,,0.00,0.00,0.00
"CA1BC000010","2016-07-04",,,0.00,0.00,0.00
"CA1BC000010","2016-07-05",,,3.00,0.00,0.00
"CA1BC000010","2016-07-06",,,3.00,0.00,0.00
"CA1BC000010","2016-07-07",,,0.00,0.00,0.00
"CA1BC000010","2016-07-08",,,20.00,0.00,0.00
"CA1BC000010","2016-07-09",,,18.00,0.00,0.00
"CA1BC000010","2016-07-10",,,3.00,0.00,0.00
"CA1BC000010","2016-07-11",,,0.00,0.00,0.00
"CA1BC000010","2016-07-12",,,5.00,0.00,0.00
"CA1BC000010","2016-07-13",,,13.00,0.00,0.00
"CA1BC000010","2016-07-14",,,48.00,0.00,0.00
"CA1BC000010","2016-07-15",,,0.00,0.00,0.00
"CA1BC000010","2016-07-16",,,28.00,0.00,0.00
"CA1BC000010","2016-07-17",,,0.00,0.00,0.00
"CA1BC000010","2016-07-18",,,0.00,0.00,0.00
"CA1BC000010","2016-07-19",,,0.00,0.00,0.00
"CA1BC000010","2016-07-20",,,3.00,0.00,0.00
"CA1BC000010","2016-07-21",,,0.00,0.00,0.00
"CA1BC000010","2016-07-22",,,0.00,0.00,0.00
"CA1BC000010","2016-07-23",,,71.00,0.00,0.00
"CA1BC000010","2016-07-24",,,0.00,0.00,0.00
"CA1BC000010","2016-07-25",,,0.00,0.00,0.00
"CA1BC000010","2016-07-26",,,0.00,0.00,0.00
"CA1BC000010","2016-07-27",,,18.00,0.00,0.00
"CA1BC000010","2016-07-28",,,0.00,0.00,0.00
"CA1BC000010","2016-07-29",,,0.00,0.00,0.00
"CA1BC000010","2016-07-30",,,0.00,0.00,0.00
"CA1BC000010","2016-07-31",,,0.00,0.00,0.00
"CA1BC000010","2016-08-01",,,5.00,0.00,0.00
"CA1BC000010","2016-08-02",,,0.00,0.00,0.00
"CA1BC000010","2016-08-03",,,71.00,0.00,0.00
"CA1BC000010","2016-08-04",,,0.00,0.00,0.00
"CA1BC000010","2016-08-05",,,0.00,0.00,0.00
"CA1BC000010","2016-08-06",,,0.00,0.00,0.00
"CA1BC000010","2016-08-07",,,0.00,0.00,0.00
"CA1BC000010","2016-08-08",,,56.00,0.00,0.00
"CA1BC000010","2016-08-09",,,8.00,0.00,0.00
"CA1BC000010","2016-08-11",,,,,0.00
"CA1BC000010","2016-08-12",,,0.00,0.00,0.00
"CA1BC000010","2016-08-13",,,0.00,0.00,0.00
"CA1BC000010","2016-08-14",,,0.00,0.00,0.00
"CA1BC000010","2016-08-15",,,0.00,0.00,0.00
"CA1BC000010","2016-08-16",,,0.00,0.00,0.00
"CA1BC000010","2016-08-17",,,0.00,0.00,0.00
"CA1BC000010","2016-08-18",,,0.00,0.00,0.00
"CA1BC000010","2016-08-19",,,0.00,0.00,0.00
"CA1BC000010","2016-08-20",,,0.00,0.00,0.00
"CA1BC000010","2016-08-21",,,0.00,0.00,0.00
"CA1BC000010","2016-08-22",,,0.00,0.00,0.00
"CA1BC000010","2016-08-23",,,0.00,0.00,0.00
"CA1BC000010","2016-08-24",,,145.00,0.00,0.00
"CA1BC000010","2016-08-25",,,0.00,0.00,0.00
"CA1BC000010","2016-08-26",,,0.00,0.00,0.00
"CA1BC000010","2016-08-27",,,0.00,0.00,0.00
"CA1BC000010","2016-08-28",,,0.00,0.00,0.00
"CA1BC000010","2016-08-29",,,0.00,0.00,0.00
"CA1BC000010","2016-08-30",,,0.00,0.00,0.00
"CA1BC000010","2016-08-31",,,0.00,0.00,0.00
"CA1BC000010","2016-09-01",,,0.00,0.00,0.00
"CA1BC000010","2016-09-02",,,20.00,0.00,0.00
"CA1BC000010","2016-09-19",,,,,0.00
"CA1BC000010","2016-09-20",,,79.00,0.00,0.00
"CA1BC000010","2016-09-21",,,0.00,0.00,0.00
"CA1BC000010","2016-09-22",,,3.00,0.00,0.00
"CA1BC000010","2016-09-23",,,0.00,0.00,0.00
"CA1BC000010","2016-09-24",,,38.00,0.00,0.00
"CA1BC000010","2016-09-25",,,0.00,0.00,0.00
"CA1BC000010","2016-09-26",,,0.00,0.00,0.00
"CA1BC000010","2016-09-27",,,0.00,0.00,0.00
"CA1BC000010","2016-09-28",,,0.00,0.00,0.00
"CA1BC000010","2016-09-29",,,0.00,0.00,0.00
"CA1BC000010","2016-09-30",,,0.00,0.00,0.00
"CA1BC000010","2016-10-01",,,89.00,0.00,0.00
"CA1BC000010","2016-10-02",,,0.00,0.00,0.00
"CA1BC000010","2016-10-03",,,0.00,0.00,0.00
"CA1BC000010","2016-10-04",,,0.00,0.00,0.00
"CA1BC000010","2016-10-05",,,15.00,0.00,0.00
"CA1BC000010","2016-10-06",,,15.00,0.00,0.00
"CA1BC000010","2016-10-07",,,109.00,0.00,0.00
"CA1BC000010","2016-10-08",,,117.00,0.00,0.00
"CA1BC000010","2016-10-09",,,127.00,0.00,0.00
"CA1BC000010","2016-10-10",,,0.00,0.00,0.00
"CA1BC000010","2016-10-11",,,38.00,0.00,0.00
"CA1BC000010","2016-10-19",,,,,0.00
"CA1BC000010","2016-10-20",,,112.00,0.00,0.00
"CA1BC000010","2016-10-21",,,94.00,0.00,0.00
"CA1BC000010","2016-10-22",,,13.00,0.00,0.00
"CA1BC000010","2016-10-23",,,0.00,0.00,0.00
"CA1BC000010","2016-10-24",,,0.00,0.00,0.00
"CA1BC000010","2016-10-25",,,79.00,0.00,0.00
"CA1BC000010","2016-10-26",,,0.00,0.00,0.00
"CA1BC000010","2016-10-27",,,213.00,0.00,0.00
"CA1BC000010","2016-10-28",,,66.00,0.00,0.00
"CA1BC000010","2016-10-29",,,0.00,0.00,0.00
"CA1BC000010","2016-10-30",,,3.00,0.00,0.00
"CA1BC000010","2016-10-31",,,53.00,0.00,0.00
"CA1BC000010","2016-11-01",,,38.00,0.00,0.00
"CA1BC000010","2016-11-02",,,66.00,0.00,0.00
"CA1BC000010","2016-11-03",,,46.00,0.00,0.00
"CA1BC000010","2016-11-04",,,0.00,0.00,0.00
"CA1BC000010","2016-11-05",,,0.00,0.00,0.00
"CA1BC000010","2016-11-06",,,64.00,0.00,0.00
"CA1BC000010","2016-11-07",,,43.00,0.00,0.00
"CA1BC000010","2016-11-08",,,0.00,0.00,0.00
"CA1BC000010","2016-11-09",,,0.00,0.00,0.00
"CA1BC000010","2016-11-10",,,0.00,0.00,0.00
"CA1BC000010","2016-11-11",,,0.00,0.00,0.00
"CA1BC000010","2016-11-12",,,13.00,0.00,0.00
"CA1BC000010","2016-11-13",,,38.00,0.00,0.00
"CA1BC000010","2016-11-14",,,89.00,0.00,0.00
"CA1BC000010","2016-11-15",,,79.00,0.00,0.00
"CA1BC000010","2016-11-16",,,86.00,0.00,0.00
"CA1BC000010","2016-11-17",,,5.00,0.00,0.00
"CA1BC000010","2016-11-18",,,0.00,0.00,0.00
"CA1BC000010","2016-11-19",,,0.00,0.00,0.00
"CA1BC000010","2016-11-20",,,20.00,0.00,0.00
"CA1BC000010","2016-11-21",,,66.00,0.00,0.00
"CA1BC000010","2016-11-22",,,3.00,0.00,0.00
"CA1BC000010","2016-11-23",,,30.00,0.00,0.00
"CA1BC000010","2016-11-24",,,18.00,0.00,0.00
"CA1BC000010","2016-11-27",,,,,0.00
"CA1BC000010","2016-11-28",,,10.00,0.00,0.00
"CA1BC000010","2016-11-29",,,8.00,0.00,0.00
"CA1BC000010","2016-11-30",,,5.00,0.00,0.00
"CA1BC000010","2016-12-01",,,5.00,0.00,0.00
"CA1BC000010","2016-12-02",,,0.00,0.00,0.00
"CA1BC000010","2016-12-03",,,20.00,0.00,0.00
"CA1BC000010","2016-12-04",,,10.00,0.00,0.00
"CA1BC000010","2016-12-05",,,0.00,0.00,0.00
"CA1BC000010","2016-12-06",,,0.00,0.00,0.00
"CA1BC000010","2016-12-07",,,0.00,0.00,0.00
"CA1BC000010","2016-12-08",,,0.00,0.00,0.00
"CA1BC000010","2016-12-09",,,0.00,0.00,0.00
"CA1BC000010","2016-12-10",,,23.00,46.00,46.00
"CA1BC000010","2016-12-11",,,36.00,71.00,99.00
"CA1BC000010","2016-12-12",,,18.00,25.00,99.00
"CA1BC000010","2016-12-13",,,0.00,0.00,89.00
"CA1BC000010","2016-12-14",,,0.00,0.00,79.00
"CA1BC000010","2016-12-15",,,0.00,0.00,76.00
"CA1BC000010","2016-12-16",,,0.00,0.00,76.00
"CA1BC000010","2016-12-17",,,0.00,0.00,71.00
"CA1BC000010","2016-12-18",,,0.00,5.00,79.00
"CA1BC000010","2016-12-19",,,46.00,119.00,191.00
"CA1BC000010","2016-12-20",,,41.00,46.00,211.00
"CA1BC000010","2016-12-21",,,10.00,20.00,211.00
"CA1BC000010","2016-12-22",,,0.00,0.00,165.00
"CA1BC000010","2016-12-23",,,10.00,10.00,165.00
"CA1BC000010","2016-12-24",,,61.00,79.00,239.00
"CA1BC000010","2016-12-25",,,0.00,0.00,226.00
"CA1BC000010","2016-12-26",,,0.00,0.00,211.00
"CA1BC000010","2016-12-27",,,89.00,211.00,361.00
"CA1BC000010","2016-12-28",,,8.00,10.00,320.00
"CA1BC000010","2016-12-29",,,13.00,25.00,315.00
"CA1BC000010","2016-12-30",,,20.00,25.00,310.00
"CA1BC000010","2016-12-31",,,0.00,0.00,310.00
"CA1BC000010","2017-01-01",,,30.00,41.00,325.00
"CA1BC000010","2017-01-02",,,0.00,0.00,305.00
"CA1BC000010","2017-01-03",,,0.00,0.00,300.00
"CA1BC000010","2017-01-04",,,0.00,0.00,284.00
"CA1BC000010","2017-01-05",,,0.00,0.00,279.00
"CA1BC000010","2017-01-06",,,5.00,13.00,279.00
"CA1BC000010","2017-01-07",,,0.00,0.00,269.00
"CA1BC000010","2017-01-08",,,0.00,0.00,269.00
"CA1BC000010","2017-01-09",,,104.00,155.00,381.00
"CA1BC000010","2017-01-10",,,0.00,0.00,361.00
"CA1BC000010","2017-01-11",,,0.00,0.00,351.00
"CA1BC000010","2017-01-12",,,0.00,0.00,345.00
"CA1BC000010","2017-01-13",,,0.00,0.00,340.00
"CA1BC000010","2017-01-14",,,0.00,0.00,325.00
"CA1BC000010","2017-01-15",,,0.00,0.00,320.00
"CA1BC000010","2017-01-16",,,0.00,0.00,310.00
"CA1BC000010","2017-01-17",,,0.00,0.00,310.00
"CA1BC000010","2017-01-18",,,142.00,170.00,460.00
"CA1BC000010","2017-01-19",,,71.00,36.00,439.00
"CA1BC000010","2017-01-20",,,0.00,0.00,366.00
"CA1BC000010","2017-01-21",,,0.00,0.00,333.00
"CA1BC000010","2017-01-22",,,5.00,0.00,330.00
"CA1BC000010","2017-01-23",,,0.00,0.00,325.00
"CA1BC000010","2017-01-24",,,0.00,0.00,320.00
"CA1BC000010","2017-01-25",,,3.00,10.00,330.00
"CA1BC000010","2017-01-26",,,0.00,0.00,320.00
"CA1BC000010","2017-01-27",,,0.00,0.00,315.00
"CA1BC000010","2017-01-28",,,0.00,0.00,310.00
"CA1BC000010","2017-01-29",,,0.00,0.00,310.00
"CA1BC000010","2017-01-30",,,0.00,0.00,295.00
"CA1BC000010","2017-01-31",,,0.00,0.00,284.00
"CA1BC000010","2017-02-01",,,0.00,0.00,284.00
"CA1BC000010","2017-02-02",,,0.00,0.00,279.00
"CA1BC000010","2017-02-03",,,0.00,0.00,274.00
"CA1BC000010","2017-02-04",,,147.00,165.00,465.00
"CA1BC000010","2017-02-05",,,46.00,46.00,511.00